Change the Weather History Date:

Monday, October 1, 2012

  Actual Average Record
Temperature  
Mean Temperature 67 °F -  
Max Temperature 75 °F 71 °F 82 °F (2011)
Min Temperature 59 °F 51 °F 48 °F (2002)
Cooling Degree Days 2    
Growing Degree Days 17 (Base 50)    
Moisture  
Dew Point 62 °F    
Average Humidity 86    
Maximum Humidity 94    
Minimum Humidity 73    
Precipitation  
Precipitation 0.00 in 0.12 in - ()
Sea Level Pressure  
Sea Level Pressure 30.00 in    
Wind  
Wind Speed 3 mph ()    
Max Wind Speed 6 mph    
Max Gust Speed -    
Visibility 6.2 miles    
Events      
Averages and records for this station are not official NWS values.
T = Trace of Precipitation, MM = Missing Value Source: Averaged Metar Reports

Daily Weather History Graph

Daily Weather History Graph

Search for Another Location

Airport or City:

Trip Planner

Search our weather history database for the weather conditions in past years. The results will help you decide how hot, cold, wet, or windy it might be!

Date:

Astronomy

Oct. 01, 2012 Rise Set
Actual Time 7:06 AM CEST 6:50 PM CEST
Civil Twilight 6:39 AM CEST 7:18 PM CEST
Nautical Twilight 6:06 AM CEST 7:50 PM CEST
Astronomical Twilight 5:34 AM CEST 8:23 PM CEST
Moon 7:16 PM CEST (10/1) 8:21 AM CEST (10/1)
Length of Visible Light 12h 39m
Length of Day
11h 44m
Full, 98% of the Moon is Illuminated
Oct 1
Full
Oct 8
Last Quarter
Oct 15
New
Oct 22
First Quarter
Oct 29
Full

Hourly Weather History & Observations

Time (CEST) Temp. Dew Point Humidity Pressure Visibility Wind Dir Wind Speed Gust Speed Precip Events Conditions
12:15 AM 62.6 °F 59.0 °F 88% 30.01 in 6.2 mi North 4.6 mph - N/A   Scattered Clouds
12:45 AM 62.6 °F 59.0 °F 88% 30.01 in 6.2 mi NNE 4.6 mph - N/A   Scattered Clouds
1:15 AM 62.6 °F 59.0 °F 88% 30.01 in 6.2 mi NE 4.6 mph - N/A   Scattered Clouds
1:45 AM 62.6 °F 59.0 °F 88% 30.01 in 6.2 mi NNE 5.8 mph - N/A   Scattered Clouds
2:15 AM 62.6 °F 59.0 °F 88% 30.01 in 6.2 mi NE 3.5 mph - N/A   Scattered Clouds
2:45 AM 62.6 °F 59.0 °F 88% 30.01 in 6.2 mi North 2.3 mph - N/A   Scattered Clouds
3:15 AM 62.6 °F 59.0 °F 88% 30.01 in 6.2 mi North 1.2 mph - N/A   Scattered Clouds
3:45 AM 60.8 °F 59.0 °F 94% 29.98 in 6.2 mi NNE 2.3 mph - N/A   Partly Cloudy
4:15 AM 60.8 °F 59.0 °F 94% 29.98 in - NNE 3.5 mph - N/A   Clear
4:45 AM 60.8 °F 57.2 °F 88% 29.98 in - NE 2.3 mph - N/A   Clear
5:15 AM 60.8 °F 57.2 °F 88% 29.98 in - NE 4.6 mph - N/A   Clear
5:45 AM 60.8 °F 57.2 °F 88% 29.98 in - NNE 3.5 mph - N/A   Clear
6:15 AM 60.8 °F 57.2 °F 88% 29.98 in - North 2.3 mph - N/A   Clear
6:45 AM 60.8 °F 57.2 °F 88% 29.98 in - North 1.2 mph - N/A   Clear
7:15 AM 60.8 °F 57.2 °F 88% 29.98 in - North 1.2 mph - N/A   Clear
7:45 AM 59.0 °F 57.2 °F 94% 30.01 in 6.2 mi NE 2.3 mph - N/A   Partly Cloudy
8:15 AM 60.8 °F 57.2 °F 88% 30.01 in 6.2 mi NE 1.2 mph - N/A   Partly Cloudy
8:45 AM 62.6 °F 59.0 °F 88% 30.01 in 6.2 mi North 2.3 mph - N/A   Scattered Clouds
9:15 AM 62.6 °F 59.0 °F 88% 30.01 in 6.2 mi NNW 2.3 mph - N/A   Scattered Clouds
9:45 AM 62.6 °F 60.8 °F 94% 30.01 in 6.2 mi North 2.3 mph - N/A   Scattered Clouds
10:15 AM 64.4 °F 60.8 °F 88% 30.01 in 6.2 mi NNE 3.5 mph - N/A   Scattered Clouds
10:45 AM 66.2 °F 64.4 °F 94% 30.01 in 6.2 mi North 1.2 mph - N/A   Scattered Clouds
11:15 AM 68.0 °F 64.4 °F 88% 30.01 in 6.2 mi North 2.3 mph - N/A   Partly Cloudy
11:45 AM 69.8 °F 66.2 °F 88% 30.01 in 6.2 mi North 2.3 mph - N/A   Mostly Cloudy
12:15 PM 73.4 °F 66.2 °F 78% 30.01 in 6.2 mi WNW 1.2 mph - N/A   Mostly Cloudy
12:45 PM 73.4 °F 64.4 °F 73% 30.01 in 6.2 mi WNW 2.3 mph - N/A   Mostly Cloudy
1:15 PM 73.4 °F 66.2 °F 78% 30.01 in 6.2 mi WNW 2.3 mph - N/A   Mostly Cloudy
1:45 PM 75.2 °F 68.0 °F 78% 30.01 in 6.2 mi West 3.5 mph - N/A   Mostly Cloudy
2:15 PM 75.2 °F 68.0 °F 78% 30.01 in 6.2 mi West 5.8 mph - N/A   Mostly Cloudy
2:45 PM 73.4 °F 66.2 °F 78% 30.01 in 6.2 mi WSW 4.6 mph - N/A   Mostly Cloudy
3:15 PM 75.2 °F 68.0 °F 78% 30.01 in 6.2 mi SW 4.6 mph - N/A   Mostly Cloudy
3:45 PM 73.4 °F 66.2 °F 78% 30.01 in 6.2 mi SW 3.5 mph - N/A   Mostly Cloudy
4:15 PM 73.4 °F 66.2 °F 78% 30.01 in 6.2 mi SW 5.8 mph - N/A   Mostly Cloudy
4:45 PM 73.4 °F 66.2 °F 78% 29.98 in 6.2 mi SW 3.5 mph - N/A   Scattered Clouds
5:15 PM 73.4 °F 66.2 °F 78% 29.98 in 6.2 mi SW 2.3 mph - N/A   Scattered Clouds
5:45 PM 71.6 °F 64.4 °F 78% 29.98 in 6.2 mi West 3.5 mph - N/A   Scattered Clouds
6:15 PM 71.6 °F 64.4 °F 78% 29.98 in 6.2 mi West 3.5 mph - N/A   Scattered Clouds
6:45 PM 69.8 °F 64.4 °F 83% 30.01 in 6.2 mi West 2.3 mph - N/A   Scattered Clouds
7:15 PM 69.8 °F 64.4 °F 83% 30.01 in 6.2 mi WNW 1.2 mph - N/A   Scattered Clouds
7:45 PM 69.8 °F 64.4 °F 83% 30.01 in 6.2 mi Calm Calm - N/A   Scattered Clouds
8:15 PM 69.8 °F 64.4 °F 83% 30.01 in 6.2 mi WSW 2.3 mph - N/A   Scattered Clouds
8:45 PM 68.0 °F 64.4 °F 88% 30.01 in 6.2 mi Calm Calm - N/A   Scattered Clouds
9:15 PM 68.0 °F 64.4 °F 88% 30.01 in 6.2 mi SW 1.2 mph - N/A   Scattered Clouds
9:45 PM 66.2 °F 64.4 °F 94% 30.01 in 6.2 mi South 1.2 mph - N/A   Partly Cloudy
10:15 PM 66.2 °F 62.6 °F 88% 30.01 in 6.2 mi SSE 2.3 mph - N/A   Scattered Clouds
10:45 PM 66.2 °F 64.4 °F 94% 30.04 in 6.2 mi South 2.3 mph - N/A   Scattered Clouds
11:15 PM 66.2 °F 62.6 °F 88% 30.04 in 6.2 mi Calm Calm - N/A   Scattered Clouds
11:45 PM 64.4 °F 62.6 °F 94% 30.04 in 6.2 mi Calm Calm - N/A   Scattered Clouds